Rockwood, MI

1:41 PM EST on January 17, 2017 (GMT -0500)
Grosse Ile Municipal

Weather History for KONZ - January, 2013

Change the Weather History Date:

Tuesday, January 15, 2013

  Actual Average (KDTW) Record (KDTW)
Temperature  
Mean Temperature 24 °F -  
Max Temperature 28 °F 28 °F 59 °F (1932)
Min Temperature 19 °F 13 °F -12 °F (1972)
Degree Days  
Heating Degree Days 42    
Moisture  
Dew Point 18 °F    
Average Humidity 76    
Maximum Humidity 93    
Minimum Humidity 64    
Precipitation  
Precipitation 0.00 in - - ()
Sea Level Pressure  
Sea Level Pressure 30.33 in    
Wind  
Wind Speed 1 mph (South)    
Max Wind Speed 6 mph    
Max Gust Speed -    
Visibility 10 miles    
Events      
Averages and records for this station are not official NWS values.
T = Trace of Precipitation, MM = Missing Value Source: NWS Daily Summary

Daily Weather History Graph

Daily Weather History Graph

Search for Another Location

Airport or City:

Trip Planner

Search our weather history database for the weather conditions in past years. The results will help you decide how hot, cold, wet, or windy it might be!

Date:

Astronomy

Jan. 15, 2013 Rise Set
Actual Time 7:58 AM EST 5:26 PM EST
Civil Twilight 7:27 AM EST 5:57 PM EST
Nautical Twilight 6:52 AM EST 6:31 PM EST
Astronomical Twilight 6:19 AM EST 7:05 PM EST
Moon 9:58 AM EST (1/15) 10:21 PM EST (1/15)
Length of Visible Light 10h 29m
Length of Day
9h 28m
Waxing Crescent, 19% of the Moon is Illuminated
Jan 15
Waxing Crescent
Jan 18
First Quarter
Jan 26
Full
Feb 3
Last Quarter
Feb 10
New

Hourly Weather History & Observations

Time (EST) Temp. Windchill Dew Point Humidity Pressure Visibility Wind Dir Wind Speed Gust Speed Precip Events Conditions
12:13 AM 23.0 °F - 15.8 °F 74% 30.38 in 10.0 mi Calm Calm - N/A   Clear
12:34 AM 21.2 °F 16.4 °F 17.6 °F 86% 30.37 in 10.0 mi NNW 3.5 mph - N/A   Clear
12:54 AM 21.2 °F 14.9 °F 17.6 °F 86% 30.37 in 10.0 mi NW 4.6 mph - N/A   Clear
1:14 AM 21.2 °F 16.4 °F 15.8 °F 80% 30.37 in 10.0 mi NW 3.5 mph - N/A   Clear
1:34 AM 21.2 °F - 15.8 °F 80% 30.38 in 10.0 mi Calm Calm - N/A   Clear
1:55 AM 21.2 °F - 17.6 °F 86% 30.38 in 10.0 mi Calm Calm - N/A   Clear
2:14 AM 21.2 °F - 17.6 °F 86% 30.38 in 10.0 mi Calm Calm - N/A   Clear
2:34 AM 21.2 °F - 17.6 °F 86% 30.38 in 10.0 mi Calm Calm - N/A   Clear
3:14 AM 21.2 °F 14.9 °F 17.6 °F 86% 30.39 in 10.0 mi WNW 4.6 mph - N/A   Clear
3:35 AM 21.2 °F 16.4 °F 15.8 °F 80% 30.39 in 10.0 mi NW 3.5 mph - N/A   Clear
3:54 AM 21.2 °F - 15.8 °F 80% 30.38 in 10.0 mi Calm Calm - N/A   Clear
4:14 AM 19.4 °F - 15.8 °F 86% 30.38 in 10.0 mi Calm Calm - N/A   Clear
4:34 AM 19.4 °F - 15.8 °F 86% 30.38 in 10.0 mi Calm Calm - N/A   Clear
4:54 AM 19.4 °F - 15.8 °F 86% 30.38 in 10.0 mi Calm Calm - N/A   Clear
5:14 AM 19.4 °F - 15.8 °F 86% 30.38 in 10.0 mi Calm Calm - N/A   Clear
5:54 AM 19.4 °F - 15.8 °F 86% 30.38 in 10.0 mi Calm Calm - N/A   Clear
6:14 AM 19.4 °F - 15.8 °F 86% 30.39 in 10.0 mi Calm Calm - N/A   Clear
6:34 AM 19.4 °F - 15.8 °F 86% 30.39 in 10.0 mi Calm Calm - N/A   Clear
7:14 AM 19.4 °F - 15.8 °F 86% 30.40 in 10.0 mi Calm Calm - N/A   Clear
7:34 AM 19.4 °F - 15.8 °F 86% 30.40 in 10.0 mi Calm Calm - N/A   Clear
7:54 AM 19.4 °F - 15.8 °F 86% 30.41 in 10.0 mi Calm Calm - N/A   Clear
8:14 AM 19.4 °F 14.3 °F 15.8 °F 86% 30.40 in 10.0 mi NNW 3.5 mph - N/A   Clear
8:34 AM 19.4 °F - 15.8 °F 86% 30.41 in 10.0 mi Calm Calm - N/A   Clear
8:54 AM 19.4 °F - 17.6 °F 93% 30.42 in 10.0 mi Calm Calm - N/A   Clear
9:14 AM 21.2 °F - 17.6 °F 86% 30.43 in 10.0 mi Calm Calm - N/A   Clear
9:34 AM 23.0 °F - 17.6 °F 80% 30.42 in 10.0 mi Calm Calm - N/A   Clear
9:54 AM 23.0 °F - 17.6 °F 80% 30.41 in 10.0 mi Calm Calm - N/A   Clear
10:14 AM 24.8 °F - 17.6 °F 74% 30.40 in 10.0 mi Calm Calm - N/A   Clear
10:34 AM 26.6 °F - 17.6 °F 69% 30.40 in 10.0 mi Calm Calm - N/A   Clear
10:55 AM 26.6 °F 22.6 °F 17.6 °F 69% 30.39 in 10.0 mi East 3.5 mph - N/A   Clear
11:14 AM 26.6 °F - 17.6 °F 69% 30.40 in 10.0 mi Calm Calm - N/A   Clear
11:34 AM 26.6 °F 22.6 °F 17.6 °F 69% 30.39 in 10.0 mi NNE 3.5 mph - N/A   Clear
11:54 AM 28.4 °F - 17.6 °F 64% 30.39 in 10.0 mi Calm Calm - N/A   Clear
12:14 PM 28.4 °F - 17.6 °F 64% 30.39 in 10.0 mi Calm Calm - N/A   Clear
12:34 PM 28.4 °F - 17.6 °F 64% 30.37 in 10.0 mi Calm Calm - N/A   Clear
12:54 PM 28.4 °F 23.3 °F 17.6 °F 64% 30.35 in 10.0 mi SSW 4.6 mph - N/A   Clear
1:14 PM 28.4 °F 22.2 °F 19.4 °F 69% 30.32 in 10.0 mi South 5.8 mph - N/A   Clear
1:34 PM 28.4 °F 22.2 °F 19.4 °F 69% 30.32 in 10.0 mi South 5.8 mph - N/A   Clear
1:54 PM 28.4 °F 22.2 °F 19.4 °F 69% 30.33 in 10.0 mi South 5.8 mph - N/A   Clear
2:34 PM 28.4 °F 24.6 °F 19.4 °F 69% 30.32 in 10.0 mi South 3.5 mph - N/A   Clear
2:54 PM 28.4 °F 24.6 °F 19.4 °F 69% 30.31 in 10.0 mi South 3.5 mph - N/A   Clear
3:14 PM 28.4 °F 24.6 °F 19.4 °F 69% 30.30 in 10.0 mi South 3.5 mph - N/A   Clear
3:35 PM 28.4 °F 24.6 °F 19.4 °F 69% 30.30 in 10.0 mi SSE 3.5 mph - N/A   Clear
4:14 PM 28.4 °F 23.3 °F 19.4 °F 69% 30.30 in 10.0 mi SSE 4.6 mph - N/A   Clear
4:34 PM 28.4 °F 23.3 °F 19.4 °F 69% 30.29 in 10.0 mi South 4.6 mph - N/A   Clear
4:54 PM 28.4 °F 24.6 °F 19.4 °F 69% 30.28 in 10.0 mi SE 3.5 mph - N/A   Clear
5:14 PM 28.4 °F 23.3 °F 19.4 °F 69% 30.29 in 10.0 mi South 4.6 mph - N/A   Scattered Clouds
5:34 PM 28.4 °F 22.2 °F 19.4 °F 69% 30.29 in 10.0 mi SSE 5.8 mph - N/A   Scattered Clouds
5:54 PM 28.4 °F 24.6 °F 19.4 °F 69% 30.29 in 10.0 mi SSE 3.5 mph - N/A   Clear
6:14 PM 28.4 °F 23.3 °F 19.4 °F 69% 30.28 in 10.0 mi SE 4.6 mph - N/A   Clear
6:34 PM 28.4 °F - 19.4 °F 69% 30.27 in 10.0 mi Calm Calm - N/A   Clear
6:54 PM 28.4 °F - 19.4 °F 69% 30.26 in 10.0 mi Calm Calm - N/A   Clear
7:14 PM 28.4 °F - 19.4 °F 69% 30.26 in 10.0 mi Calm Calm - N/A   Clear
7:34 PM 28.4 °F - 17.6 °F 64% 30.26 in 10.0 mi Calm Calm - N/A   Clear
7:54 PM 28.4 °F - 19.4 °F 69% 30.25 in 10.0 mi Calm Calm - N/A   Clear
8:14 PM 28.4 °F - 19.4 °F 69% 30.25 in 10.0 mi Calm Calm - N/A   Clear
8:34 PM 28.4 °F - 17.6 °F 64% 30.23 in 10.0 mi Calm Calm - N/A   Clear
8:54 PM 28.4 °F - 19.4 °F 69% 30.22 in 10.0 mi Calm Calm - N/A   Clear
9:14 PM 26.6 °F - 19.4 °F 74% 30.21 in 10.0 mi Calm Calm - N/A   Clear
9:34 PM 26.6 °F - 19.4 °F 74% 30.21 in 10.0 mi Calm Calm - N/A   Clear
9:54 PM 26.6 °F - 19.4 °F 74% 30.20 in 10.0 mi Calm Calm - N/A   Scattered Clouds
10:14 PM 26.6 °F - 19.4 °F 74% 30.19 in 10.0 mi Calm Calm - N/A   Scattered Clouds
10:34 PM 26.6 °F - 19.4 °F 74% 30.17 in 10.0 mi Calm Calm - N/A   Scattered Clouds
10:54 PM 26.6 °F - 19.4 °F 74% 30.16 in 10.0 mi Calm Calm - N/A   Scattered Clouds
11:14 PM 26.6 °F - 19.4 °F 74% 30.15 in 10.0 mi Calm Calm - N/A   Scattered Clouds
11:35 PM 24.8 °F 20.5 °F 19.4 °F 80% 30.14 in 10.0 mi NE 3.5 mph - N/A   Scattered Clouds
11:54 PM 24.8 °F - 19.4 °F 80% 30.12 in 10.0 mi Calm Calm - N/A   Clear